Wetbulb
73.02 69.25 67.67 65.58 52.60 49.35 45.36 47.89 50.69 51.21 55.09 58.67 59.71 56.55 55.49 56.81 52.69 46.54 65.64 70.69 71.57 72.60 73.72 75.23 75.46 75.53 75.61 74.91 73.80 73.72 72.70 72.18 70.78 70.04 71.56 73.07 72.86 73.23 74.47 74.38 74.43 74.22 74.76 75.02 75.02 74.94 74.90 74.82 74.74
71.09 68.06 66.62 59.17 48.61 43.41 45.21 49.33 50.77 54.34 58.61 59.35 58.32 58.50 57.50 56.42 61.77 64.12 65.64 70.74 72.31 72.81 73.62 74.44 75.21 75.72 75.15 74.13 72.97 73.34 72.91 72.87 71.78 69.32 70.43 71.04 72.60 72.42 72.43 73.21 72.42 72.69 73.72 74.46 74.69 74.59 74.20 74.10 74.26
65.71 67.37 59.28 53.97 49.08 44.65 43.11 47.67 50.16 56.46 56.37 55.92 55.51 57.62 57.57 58.06 62.50 65.06 65.90 70.95 72.38 72.17 73.08 72.84 75.09 75.40 75.41 73.46 72.80 73.02 73.38 73.04 71.40 69.45 69.91 69.41 71.29 71.43 71.63 71.49 71.38 71.66 72.17 72.90 73.38 73.96 74.21 73.99 73.90
60.59 61.29 54.31 49.26 45.57 46.72 45.70 45.53 53.10 49.50 53.09 56.12 56.60 56.00 58.77 58.80 59.77 62.50 70.00 71.71 70.88 71.05 71.38 73.39 75.41 75.02 74.12 73.32 72.71 72.59 72.93 72.03 70.69 69.45 69.54 68.94 69.14 70.65 70.64 70.38 70.38 69.66 70.76 71.25 71.72 73.38 73.32 73.59 73.58
60.84 55.17 46.65 44.54 44.92 44.38 44.49 47.52 48.00 48.36 50.27 50.13 53.97 54.75 56.52 57.61 60.63 67.59 69.93 70.82 70.09 69.96 71.72 73.62 74.81 74.49 74.12 73.63 73.22 72.62 73.14 72.39 70.77 69.46 69.25 69.21 68.54 67.62 68.08 68.08 68.17 68.17 68.98 69.32 69.89 71.10 73.00 72.99 73.16
56.82 52.63 44.71 41.98 43.40 45.05 44.03 46.87 46.89 45.90 46.27 47.38 53.57 52.46 53.67 55.05 57.63 63.58 70.08 69.40 70.71 70.86 72.40 72.59 74.46 75.15 74.40 73.89 73.39 72.01 72.21 72.55 71.39 70.18 69.14 68.81 68.86 68.31 67.28 66.48 66.48 66.44 66.82 66.96 66.69 69.42 70.97 72.59 73.08
53.68 49.62 44.40 42.54 42.32 44.20 45.78 46.90 44.63 45.29 44.57 46.68 49.70 47.66 51.20 56.14 58.45 67.77 66.69 59.77 64.85 70.82 70.95 71.13 72.35 72.87 74.08 73.29 72.90 72.44 73.03 72.76 71.59 70.82 70.41 69.86 69.24 68.73 68.58 67.87 66.78 66.43 66.32 65.97 65.82 67.85 69.68 71.22 71.85
54.03 50.58 43.45 42.07 43.13 43.03 47.49 48.91 48.91 46.52 44.94 49.98 50.38 46.39 51.76 52.41 58.49 58.79 57.29 55.77 56.04 58.17 59.17 63.61 71.37 71.54 71.15 70.82 73.69 73.06 72.73 72.78 72.96 73.00 72.26 71.72 71.07 70.87 70.41 69.92 69.10 68.85 68.35 67.61 66.93 66.30 68.19 69.61 70.26
54.78 45.23 42.31 44.27 44.50 45.54 48.36 47.20 49.43 49.71 48.39 49.04 49.46 49.63 51.79 55.63 56.25 54.38 51.81 51.75 56.66 60.80 61.13 66.92 67.16 69.71 70.98 70.90 71.40 71.70 72.57 72.57 71.66 70.45 70.92 69.88 68.92 68.16 68.42 69.32 70.42 70.34 70.70 69.55 68.41 67.87 67.25 67.63 69.09
50.22 44.61 45.26 48.43 48.09 45.86 49.12 47.79 48.17 47.43 46.36 46.85 48.15 50.24 51.36 53.48 52.73 51.28 49.95 48.14 49.63 50.87 58.24 64.00 65.67 65.97 66.89 67.64 66.98 67.03 67.81 66.94 65.67 65.49 65.20 66.69 65.98 66.49 67.45 68.24 69.97 69.87 70.02 70.15 69.19 68.86 68.74 67.34 61.87
49.90 47.80 48.81 50.60 49.99 50.47 49.08 47.63 49.54 46.27 43.86 46.34 47.96 48.52 48.55 49.46 49.11 48.00 46.11 44.84 43.93 45.67 50.13 54.08 59.53 62.70 63.95 64.33 63.95 63.51 63.81 63.86 63.62 61.90 61.43 62.81 62.47 62.40 63.07 64.00 65.32 66.26 67.36 63.28 62.92 60.92 60.06 60.60 60.73
47.83 49.90 50.46 51.80 51.64 49.15 47.94 48.56 46.04 45.95 45.32 48.16 49.27 48.47 47.13 47.09 46.89 45.43 44.15 44.53 44.49 44.79 45.01 47.12 48.61 49.08 48.22 49.51 51.50 54.19 57.48 56.91 53.63 51.47 54.06 55.37 54.81 56.26 58.85 59.55 59.72 59.12 63.47 64.78 64.32 63.27 62.51 59.01 57.15
47.74 48.72 50.58 50.01 49.93 48.62 49.09 46.29 45.33 44.93 46.19 46.92 48.15 47.35 45.52 45.10 44.50 43.94 43.73 43.86 43.84 44.59 44.37 44.72 44.91 44.46 44.94 45.50 45.16 45.54 46.15 46.85 47.66 46.97 47.77 48.63 47.96 47.99 50.35 50.83 53.14 54.28 55.53 60.74 62.57 62.46 62.85 62.25 61.59
48.85 48.41 47.80 48.80 48.30 48.33 46.75 44.92 45.30 44.80 46.19 45.63 46.06 44.49 43.61 44.37 43.67 42.15 42.25 42.74 42.66 42.89 43.81 44.50 44.90 43.67 44.36 43.80 44.00 44.17 44.46 44.41 44.59 44.49 44.89 46.70 45.53 44.66 45.90 45.92 46.47 47.04 48.81 52.53 56.58 57.37 58.49 59.94 60.81
48.29 45.15 45.06 45.56 46.59 45.91 46.94 42.06 43.28 45.22 45.58 44.55 43.03 41.75 42.75 43.06 43.51 42.41 43.14 42.77 42.60 42.72 43.90 44.66 44.97 44.45 43.77 43.62 44.05 43.92 44.70 44.78 43.39 43.48 43.75 44.66 45.05 43.75 43.98 44.06 44.24 44.31 45.68 48.45 49.41 51.49 54.32 54.45 56.15
42.93 41.61 37.88 42.59 45.83 46.00 44.18 38.58 43.33 44.63 44.18 43.09 41.89 39.86 41.39 41.82 42.83 41.79 43.25 43.56 42.67 43.11 43.76 45.26 48.26 45.00 43.67 43.41 43.27 43.45 43.48 43.01 42.82 42.65 42.89 44.57 45.73 44.71 43.35 43.19 43.08 43.71 44.69 46.20 45.68 47.33 50.11 49.96 51.89
39.51 34.98 36.58 40.08 45.75 45.16 42.47 39.71 42.87 43.69 43.80 42.54 40.95 39.99 40.75 40.10 39.76 40.56 42.87 43.34 43.32 42.74 42.71 43.53 43.95 44.60 44.30 42.90 42.90 42.48 42.65 42.61 42.09 41.93 42.55 43.69 45.45 45.65 42.42 42.12 42.35 43.07 43.11 42.90 43.64 45.13 46.49 48.37 48.75
36.08 36.02 37.15 36.88 41.85 43.08 40.37 40.58 41.10 42.47 42.63 42.44 40.81 39.59 39.95 39.98 40.88 41.59 42.76 42.95 43.25 42.39 42.12 42.66 43.16 43.09 42.55 41.86 41.65 41.61 41.97 42.04 41.83 41.92 43.12 43.83 44.36 44.09 42.24 42.23 42.31 42.08 41.46 41.29 41.66 41.83 43.26 45.73 47.28
39.97 38.02 37.30 38.93 43.33 42.15 40.20 40.97 42.39 43.07 41.37 40.70 39.82 39.15 39.29 39.72 41.14 41.39 42.17 41.95 41.72 41.41 40.88 41.22 42.34 41.90 41.81 41.38 40.89 39.95 40.35 40.25 41.14 42.15 43.47 43.32 43.60 43.63 42.49 42.31 41.75 41.58 40.72 40.23 40.68 40.83 42.13 42.46 45.13
41.35 38.08 37.29 40.85 44.57 42.29 40.07 40.55 42.91 42.42 42.28 43.04 42.20 39.89 40.01 39.14 40.04 40.56 41.51 40.90 41.31 41.33 41.11 40.77 41.76 41.95 41.82 41.43 40.76 40.27 39.44 40.06 40.52 41.79 42.04 42.87 42.70 42.65 43.26 40.78 40.67 40.39 39.90 39.96 39.74 39.22 38.94 40.90 43.25
40.13 37.91 37.51 38.49 41.65 40.97 39.48 37.75 38.96 41.44 41.61 43.02 42.67 42.25 41.42 40.44 40.03 39.53 39.62 40.76 40.93 40.43 40.66 41.41 41.62 42.27 42.38 42.11 41.15 40.35 39.41 39.37 40.08 40.04 40.53 41.62 41.48 41.61 41.24 40.77 40.20 39.79 39.13 38.90 38.54 38.75 38.42 38.03 39.44
36.36 42.39 42.38 41.24 37.43 32.79 38.50 30.13 36.11 36.62 38.58 39.24 39.59 39.19 40.01 39.60 39.92 40.45 39.82 39.95 40.24 41.14 41.15 41.71 42.30 42.15 43.39 41.53 40.44 39.27 38.61 37.82 38.29 38.16 39.33 39.41 40.08 40.26 40.94 40.89 40.15 39.24 38.94 38.11 38.25 41.95 38.73 37.71 37.30
39.98 43.64 40.53 39.59 34.63 32.81 32.76 29.72 33.91 37.18 37.36 38.10 38.01 38.99 39.48 39.64 40.98 40.48 40.64 41.06 41.14 40.66 41.23 41.61 42.11 43.08 43.12 41.15 40.48 39.43 38.16 37.76 37.89 37.53 37.46 37.70 38.58 39.58 40.36 40.20 39.51 38.96 38.68 38.44 38.32 38.17 37.80 37.72 36.94
43.78 39.62 37.20 35.63 32.66 27.00 30.67 30.54 32.09 34.54 36.22 37.98 37.51 40.06 40.84 40.03 39.74 40.14 40.81 39.58 40.70 40.84 41.52 41.82 42.35 42.99 41.99 41.50 40.07 38.77 37.34 36.67 35.87 35.79 35.70 36.75 37.25 38.27 39.30 40.05 38.97 38.77 38.45 38.52 38.78 38.42 37.56 37.62 37.52
39.52 33.53 27.56 26.18 26.72 26.33 32.88 30.29 32.83 35.81 36.40 37.01 38.97 40.30 40.60 40.00 39.07 39.69 40.15 39.56 40.18 40.36 41.02 42.61 42.08 41.71 41.15 39.87 39.16 37.96 36.50 35.13 34.82 35.43 35.49 35.73 36.16 36.89 37.63 38.09 38.15 38.31 38.68 38.83 38.73 37.82 37.32 37.31 36.56
36.04 33.74 27.69 24.96 25.18 28.30 32.61 28.74 33.82 35.86 37.24 37.49 38.66 39.49 39.86 40.13 39.23 39.36 39.94 39.53 39.57 40.81 41.06 41.35 41.07 40.34 39.55 38.34 37.00 36.11 36.03 35.88 36.08 36.07 36.25 35.60 35.73 36.54 37.85 38.36 38.29 38.34 38.48 38.52 38.17 37.33 37.60 37.53 37.72
34.55 32.08 34.25 29.01 25.50 24.17 27.62 31.30 35.28 36.60 37.03 37.51 38.03 39.14 38.80 39.65 39.70 39.79 39.50 39.28 38.86 39.23 39.75 40.22 40.32 38.89 37.21 36.23 36.08 35.79 35.88 36.06 36.08 36.04 35.48 35.79 36.51 39.10 39.54 38.12 37.58 38.13 38.59 39.63 39.36 38.73 38.33 38.45 38.49
35.17 37.24 29.88 27.83 23.41 21.74 25.22 25.75 29.91 32.46 34.37 36.75 37.57 37.97 38.63 39.69 39.16 38.40 38.27 38.90 39.06 38.32 38.56 38.05 37.56 36.21 35.70 36.13 35.78 37.14 35.66 35.79 35.88 35.31 35.44 35.94 36.58 36.62 37.03 37.84 38.16 38.27 38.52 38.71 38.30 37.86 38.21 37.65 38.11
33.29 31.17 30.54 29.66 27.02 23.51 21.52 25.93 32.12 31.97 34.63 34.14 35.46 36.93 37.68 38.07 38.43 38.60 38.21 38.53 38.69 37.70 37.10 36.02 35.46 35.74 35.78 36.15 36.00 35.58 35.35 35.37 35.27 35.14 35.36 35.57 36.02 37.27 37.43 37.65 37.65 37.52 37.66 38.11 37.62 37.33 37.54 37.16 37.53
33.44 31.42 30.97 25.72 24.64 23.30 21.11 26.16 34.88 32.55 34.94 36.15 35.29 37.49 37.51 38.35 38.87 38.83 38.89 37.41 36.46 35.84 35.13 34.32 34.79 35.05 35.54 35.79 35.23 34.69 34.78 34.93 34.13 34.18 34.82 35.89 36.38 37.19 37.11 37.41 37.26 37.25 37.57 37.94 37.94 37.16 37.87 37.36 37.00
MSLP
1010.05 1009.82 1009.88 1010.35 1011.88 1013.02 1013.39 1013.27 1012.73 1012.58 1012.87 1013.12 1012.76 1013.11 1013.96 1014.46 1014.80 1015.57 1015.00 1014.97 1015.00 1015.30 1015.35 1015.39 1015.39 1015.53 1015.63 1015.77 1015.89 1015.98 1016.08 1016.19 1016.23 1016.17 1016.09 1016.01 1015.76 1015.75 1015.69 1015.60 1015.53 1015.40 1015.34 1015.28 1015.21 1015.19 1015.09 1015.13 1015.11
1009.97 1009.85 1010.25 1011.05 1012.88 1013.96 1013.97 1013.26 1012.89 1012.64 1012.93 1013.12 1013.15 1013.64 1014.12 1014.78 1014.69 1015.05 1015.04 1015.18 1015.11 1015.13 1015.23 1015.32 1015.33 1015.48 1015.67 1015.84 1016.00 1016.12 1016.05 1016.28 1016.38 1016.35 1016.30 1016.32 1016.19 1016.05 1016.01 1015.98 1015.89 1015.79 1015.74 1015.65 1015.58 1015.54 1015.44 1015.36 1015.45
1010.00 1010.17 1011.01 1011.87 1013.54 1013.90 1013.61 1013.27 1013.05 1013.24 1013.27 1013.24 1013.71 1013.99 1014.43 1014.96 1014.76 1014.70 1014.52 1014.94 1015.05 1015.15 1015.22 1015.33 1015.56 1015.84 1015.98 1016.10 1016.24 1016.33 1016.45 1016.52 1016.57 1016.54 1016.53 1016.57 1016.48 1016.38 1016.37 1016.28 1016.24 1016.20 1016.10 1016.06 1015.95 1015.87 1015.71 1015.69 1015.67
1010.20 1010.82 1011.93 1012.43 1013.53 1013.57 1013.23 1013.19 1013.23 1013.52 1013.60 1013.61 1014.03 1014.60 1014.65 1014.87 1014.84 1014.44 1014.59 1014.70 1015.01 1015.24 1015.61 1015.85 1015.97 1016.09 1016.22 1016.32 1016.42 1016.52 1016.64 1016.67 1016.71 1016.69 1016.72 1016.78 1016.72 1016.67 1016.70 1016.65 1016.58 1016.49 1016.40 1016.29 1016.22 1016.12 1015.94 1015.85 1015.84
1010.75 1011.68 1012.89 1013.55 1013.69 1013.56 1013.19 1013.35 1013.35 1013.92 1014.17 1014.41 1014.40 1014.92 1014.92 1014.97 1014.63 1014.51 1014.62 1014.92 1015.25 1015.80 1015.82 1015.90 1015.96 1016.06 1016.28 1016.40 1016.53 1016.59 1016.70 1016.78 1016.83 1016.90 1016.90 1016.90 1016.95 1016.94 1016.94 1016.93 1016.85 1016.78 1016.71 1016.59 1016.46 1016.33 1016.16 1016.01 1015.93
1011.61 1012.52 1013.67 1014.04 1013.73 1013.59 1013.36 1013.24 1013.40 1013.93 1014.40 1014.67 1014.89 1014.98 1015.28 1015.27 1014.92 1015.12 1015.47 1015.57 1015.55 1015.82 1015.74 1015.92 1015.92 1016.17 1016.36 1016.45 1016.61 1016.73 1016.71 1016.88 1016.94 1016.97 1017.03 1017.02 1017.02 1017.09 1017.11 1017.13 1017.07 1016.96 1016.87 1016.83 1016.73 1016.60 1016.39 1016.27 1016.14
1011.91 1013.12 1014.00 1013.97 1013.75 1013.42 1013.25 1013.28 1013.75 1014.25 1014.56 1014.97 1015.09 1015.62 1015.52 1015.54 1015.04 1015.29 1015.72 1015.84 1015.79 1015.89 1015.91 1016.03 1016.08 1016.24 1016.31 1016.47 1016.58 1016.68 1016.80 1016.92 1017.01 1017.02 1017.05 1017.11 1017.06 1017.06 1017.00 1017.09 1017.17 1017.10 1017.04 1016.98 1016.92 1016.80 1016.67 1016.57 1016.45
1011.94 1013.02 1014.08 1014.00 1013.84 1013.26 1013.07 1013.41 1014.01 1014.44 1015.08 1015.19 1015.38 1015.93 1016.16 1016.24 1015.78 1015.68 1016.20 1016.36 1016.48 1016.65 1016.50 1016.41 1016.38 1016.57 1016.77 1016.85 1016.76 1016.87 1016.89 1016.94 1017.09 1017.13 1017.02 1016.97 1017.00 1016.94 1016.91 1016.96 1017.02 1016.98 1017.01 1016.99 1017.00 1016.95 1016.79 1016.65 1016.56
1011.68 1012.99 1013.94 1013.69 1013.66 1013.00 1013.04 1013.57 1014.33 1014.85 1015.26 1015.69 1015.96 1016.20 1016.47 1016.44 1016.26 1016.32 1016.84 1017.03 1016.85 1017.05 1017.06 1016.74 1016.96 1016.95 1017.05 1017.23 1017.33 1017.40 1017.44 1017.41 1017.47 1017.53 1017.47 1017.43 1017.39 1017.13 1017.09 1017.14 1017.02 1016.97 1016.92 1016.91 1016.97 1016.96 1016.92 1016.82 1016.68
1011.86 1012.97 1013.05 1012.75 1012.77 1012.82 1013.16 1013.68 1014.50 1015.16 1015.79 1016.37 1016.58 1016.81 1016.86 1016.85 1016.93 1017.17 1017.67 1018.01 1017.78 1017.86 1017.84 1017.64 1017.29 1017.46 1017.47 1017.59 1017.83 1017.92 1017.98 1018.02 1018.04 1018.01 1017.97 1017.88 1017.75 1017.48 1017.47 1017.38 1017.19 1017.15 1017.07 1016.98 1016.95 1016.98 1016.93 1016.87 1017.04
1011.70 1012.26 1012.38 1012.46 1012.52 1012.79 1013.39 1014.13 1014.73 1015.32 1016.07 1016.28 1016.70 1017.20 1017.46 1017.63 1017.89 1018.03 1018.40 1018.56 1018.73 1018.63 1018.63 1018.41 1018.10 1018.09 1018.07 1018.26 1018.45 1018.63 1018.59 1018.62 1018.63 1018.64 1018.51 1018.40 1018.24 1018.04 1017.80 1017.74 1017.71 1017.56 1017.48 1017.35 1017.41 1017.44 1017.34 1017.24 1017.19
1011.50 1011.94 1012.18 1012.49 1012.69 1013.12 1013.81 1014.47 1015.16 1015.67 1015.95 1015.98 1016.63 1017.13 1017.73 1018.21 1018.47 1018.73 1018.99 1019.12 1019.13 1019.13 1019.12 1019.01 1018.86 1018.84 1019.04 1019.15 1019.34 1019.45 1019.44 1019.50 1019.52 1019.45 1019.20 1019.11 1019.06 1018.78 1018.65 1018.55 1018.29 1018.01 1017.85 1017.74 1017.64 1017.52 1017.42 1017.30 1017.25
1011.47 1012.11 1012.49 1012.81 1013.17 1013.70 1014.08 1014.84 1015.32 1015.99 1016.39 1016.64 1017.07 1017.56 1018.17 1018.52 1018.75 1019.08 1019.13 1019.37 1019.44 1019.54 1019.69 1019.68 1019.47 1019.56 1019.65 1019.72 1019.97 1020.03 1020.23 1020.25 1020.22 1020.00 1019.80 1019.68 1019.71 1019.66 1019.40 1019.30 1019.01 1018.73 1018.57 1018.37 1018.10 1017.83 1017.38 1017.22 1017.10
1011.88 1012.38 1012.89 1013.16 1013.52 1013.95 1014.58 1015.40 1015.73 1016.43 1016.77 1017.26 1017.60 1018.14 1018.51 1018.65 1018.91 1019.36 1019.60 1019.71 1019.64 1019.86 1019.97 1019.86 1019.85 1019.95 1019.92 1020.22 1020.31 1020.46 1020.41 1020.43 1020.30 1020.25 1020.17 1019.94 1020.02 1020.08 1020.00 1019.81 1019.63 1019.41 1019.18 1018.79 1018.52 1018.28 1017.96 1017.68 1017.36
1012.39 1012.98 1013.32 1013.52 1013.82 1014.21 1014.70 1015.80 1015.85 1016.21 1017.01 1017.75 1018.27 1018.51 1018.79 1018.87 1019.04 1019.21 1019.47 1019.68 1019.64 1019.83 1019.80 1019.78 1019.86 1020.12 1020.19 1020.39 1020.42 1020.51 1020.51 1020.58 1020.66 1020.54 1020.28 1020.14 1020.10 1020.19 1020.23 1020.19 1020.03 1019.77 1019.52 1019.06 1018.70 1018.39 1018.11 1017.95 1017.61
1013.28 1013.83 1014.30 1013.95 1014.14 1014.45 1014.99 1015.45 1015.44 1016.16 1017.00 1018.04 1018.57 1018.91 1019.03 1019.14 1019.10 1019.26 1019.36 1019.47 1019.67 1019.62 1019.75 1019.75 1019.73 1020.17 1020.34 1020.38 1020.46 1020.53 1020.63 1020.71 1020.77 1020.66 1020.52 1020.36 1020.27 1020.22 1020.23 1020.21 1020.04 1019.83 1019.59 1019.39 1019.21 1018.77 1018.35 1018.09 1017.78
1014.58 1014.73 1014.90 1014.48 1014.36 1014.82 1015.38 1015.62 1015.77 1016.43 1017.17 1018.08 1018.62 1019.06 1019.15 1019.20 1019.32 1019.30 1019.19 1019.32 1019.60 1019.64 1019.79 1019.92 1019.98 1020.17 1020.38 1020.48 1020.61 1020.75 1020.74 1020.75 1020.76 1020.64 1020.53 1020.39 1020.23 1020.12 1020.21 1020.20 1020.04 1019.74 1019.59 1019.41 1019.34 1018.99 1018.86 1018.44 1017.91
1014.69 1014.98 1014.85 1014.77 1014.76 1015.17 1015.72 1015.47 1015.98 1016.64 1017.30 1017.70 1018.37 1018.95 1019.27 1019.19 1019.13 1019.09 1019.15 1019.32 1019.53 1019.73 1019.82 1019.81 1019.93 1020.12 1020.37 1020.55 1020.66 1020.73 1020.70 1020.62 1020.56 1020.56 1020.43 1020.29 1020.22 1020.09 1020.11 1020.02 1019.85 1019.65 1019.65 1019.49 1019.32 1019.15 1018.67 1018.40 1018.03
1014.11 1014.56 1014.71 1014.62 1014.69 1015.32 1015.54 1015.59 1015.51 1016.09 1016.96 1017.58 1018.15 1018.63 1018.95 1019.03 1019.01 1019.16 1019.16 1019.27 1019.60 1019.86 1020.01 1019.95 1020.09 1020.27 1020.44 1020.69 1020.92 1021.08 1021.17 1020.90 1020.72 1020.55 1020.42 1020.32 1020.26 1020.17 1020.11 1019.97 1019.73 1019.55 1019.56 1019.40 1019.21 1018.99 1018.78 1018.42 1017.94
1014.07 1014.55 1014.86 1014.82 1014.91 1015.55 1015.60 1015.49 1015.12 1015.38 1015.83 1016.30 1016.95 1017.89 1018.29 1018.93 1019.08 1019.21 1019.36 1019.36 1019.41 1019.61 1019.95 1020.15 1020.21 1020.27 1020.39 1020.55 1020.76 1020.92 1021.02 1020.94 1020.86 1020.65 1020.42 1020.33 1020.28 1020.17 1020.04 1020.09 1019.97 1019.70 1019.60 1019.34 1019.14 1019.05 1019.05 1018.71 1018.16
1014.30 1014.71 1015.03 1015.47 1015.53 1015.75 1016.03 1015.68 1015.20 1015.04 1015.36 1015.65 1016.23 1016.90 1017.76 1018.38 1018.78 1019.05 1019.16 1019.20 1019.30 1019.62 1019.86 1020.02 1020.10 1020.16 1020.24 1020.40 1020.67 1020.88 1021.03 1020.98 1020.84 1020.64 1020.48 1020.33 1020.24 1020.04 1019.90 1019.77 1019.68 1019.52 1019.42 1019.27 1019.03 1018.83 1018.82 1018.68 1018.21
1014.72 1014.91 1015.45 1016.04 1016.60 1017.06 1017.04 1017.17 1015.65 1015.36 1015.49 1015.77 1016.32 1016.88 1017.52 1018.12 1018.45 1018.54 1018.77 1019.06 1019.13 1019.13 1019.51 1019.70 1019.85 1019.96 1020.09 1020.29 1020.48 1020.68 1020.92 1021.15 1020.95 1020.82 1020.56 1020.30 1019.98 1019.81 1019.61 1019.43 1019.29 1019.19 1019.05 1018.96 1018.74 1018.49 1018.42 1018.44 1018.36
1015.20 1015.51 1016.29 1016.87 1017.74 1018.19 1018.05 1018.20 1015.61 1015.64 1015.71 1015.91 1016.38 1017.04 1017.31 1017.55 1017.81 1018.13 1018.38 1018.45 1018.56 1019.05 1019.38 1019.42 1019.62 1019.80 1019.93 1020.08 1020.19 1020.44 1020.71 1020.85 1020.66 1020.57 1020.41 1020.19 1019.88 1019.58 1019.33 1019.08 1018.89 1018.80 1018.59 1018.45 1018.29 1018.09 1017.95 1017.86 1017.84
1015.64 1016.41 1017.42 1018.33 1018.99 1019.23 1018.15 1018.19 1016.59 1016.40 1016.45 1016.16 1016.27 1016.69 1016.98 1017.28 1017.58 1017.92 1018.00 1018.38 1018.68 1018.93 1019.28 1019.40 1019.54 1019.64 1019.80 1019.99 1020.07 1020.19 1020.52 1020.68 1020.75 1020.62 1020.53 1020.13 1019.79 1019.45 1019.04 1018.68 1018.50 1018.29 1018.13 1017.93 1017.65 1017.42 1017.29 1017.09 1016.90
1016.42 1017.61 1018.84 1019.72 1020.18 1019.55 1018.62 1018.52 1016.76 1016.23 1016.21 1016.34 1016.34 1016.43 1016.67 1017.21 1017.64 1017.88 1018.07 1018.33 1018.63 1018.84 1019.10 1019.32 1019.51 1019.69 1019.85 1019.91 1020.03 1020.19 1020.35 1020.49 1020.64 1020.56 1020.40 1020.11 1019.69 1019.27 1018.90 1018.58 1018.26 1017.97 1017.62 1017.34 1017.09 1016.88 1016.63 1016.40 1016.19
1017.19 1018.08 1019.23 1019.97 1020.52 1020.00 1018.91 1018.00 1016.58 1016.21 1016.23 1016.25 1016.10 1016.08 1016.79 1017.22 1017.42 1017.71 1017.86 1018.16 1018.43 1018.73 1019.03 1019.37 1019.69 1019.92 1019.96 1020.00 1020.11 1020.19 1020.30 1020.38 1020.32 1020.14 1019.91 1019.69 1019.41 1018.96 1018.45 1018.00 1017.67 1017.34 1016.99 1016.70 1016.45 1016.22 1015.96 1015.69 1015.37
1017.85 1018.61 1019.12 1019.97 1020.91 1020.68 1019.07 1017.68 1016.76 1016.43 1016.42 1016.35 1016.39 1016.56 1016.96 1017.37 1017.55 1017.74 1018.02 1018.34 1018.85 1019.24 1019.49 1019.74 1019.92 1020.03 1020.11 1020.17 1020.17 1020.24 1020.24 1020.18 1020.10 1019.70 1019.52 1019.28 1018.87 1018.34 1017.77 1017.48 1017.22 1016.83 1016.37 1016.02 1015.60 1015.22 1014.91 1014.66 1014.41
1017.68 1018.55 1019.51 1020.51 1021.32 1021.26 1019.83 1018.74 1017.88 1017.39 1017.15 1017.00 1016.93 1017.04 1017.24 1017.58 1018.00 1018.50 1018.88 1019.12 1019.38 1019.59 1019.78 1019.92 1020.06 1020.28 1020.37 1020.33 1020.37 1020.31 1020.14 1019.89 1019.80 1019.52 1019.24 1018.87 1018.37 1017.92 1017.46 1017.00 1016.52 1016.05 1015.63 1015.19 1014.75 1014.31 1014.01 1013.72 1013.48
1018.39 1018.87 1019.95 1020.98 1021.66 1021.88 1021.22 1019.69 1018.15 1017.81 1017.59 1017.48 1017.57 1017.95 1017.99 1018.16 1018.39 1018.68 1018.86 1019.11 1019.37 1019.65 1019.94 1020.25 1020.40 1020.52 1020.57 1020.46 1020.37 1020.25 1020.09 1019.89 1019.69 1019.27 1018.78 1018.31 1017.75 1017.34 1016.73 1016.25 1015.74 1015.28 1014.83 1014.42 1013.89 1013.45 1013.12 1012.83 1012.50
1018.39 1018.93 1019.87 1021.58 1022.42 1022.65 1022.06 1019.90 1018.51 1018.45 1018.21 1018.18 1018.39 1018.56 1018.71 1018.69 1018.79 1018.98 1019.11 1019.51 1019.92 1020.31 1020.51 1020.65 1020.70 1020.74 1020.66 1020.49 1020.31 1020.20 1019.94 1019.53 1019.10 1018.62 1018.12 1017.69 1017.19 1016.65 1016.13 1015.53 1014.96 1014.44 1013.93 1013.43 1012.88 1012.42 1012.11 1011.76 1011.43
Wind_Speed
7 5 1 3 7 7 3 3 4 2 5 5 2 7 8 3 3 5 4 7 8 8 5 7 11 8 11 11 10 8 9 8 7 7 7 8 8 10 12 11 12 11 11 11 10 10 8 9 8
4 2 4 3 7 4 4 5 3 1 8 6 6 4 7 3 3 3 3 5 8 9 6 6 11 10 10 11 8 7 6 8 6 6 6 6 6 7 8 9 9 8 10 11 10 10 8 6 6
1 2 4 5 4 4 3 2 3 4 4 2 4 4 3 2 2 7 4 9 8 7 6 6 10 8 8 9 7 7 7 6 5 6 6 5 4 5 6 6 6 6 6 8 8 8 8 6 5
3 5 5 6 4 3 0 3 5 5 5 7 3 5 2 2 3 1 11 10 9 6 4 5 8 10 8 7 6 6 6 5 5 5 5 5 4 4 4 4 4 4 4 6 6 7 6 6 5
5 4 5 4 2 2 2 2 4 5 4 4 2 3 3 2 5 7 11 9 5 5 4 5 9 9 8 6 5 5 6 5 4 4 4 4 3 3 3 2 3 3 3 4 5 6 6 5 7
4 3 5 3 2 3 2 0 3 4 2 2 4 4 1 2 6 5 7 4 5 6 6 5 8 9 7 6 5 3 3 3 3 3 2 2 2 1 2 2 2 1 2 3 4 5 5 6 7
6 5 3 4 3 1 4 2 3 4 2 4 2 4 3 7 7 10 8 8 4 4 4 3 4 4 6 5 5 4 4 3 2 1 0 1 1 2 1 2 3 3 3 3 4 4 5 6 8
6 5 4 2 4 4 2 3 4 3 2 1 1 4 1 2 5 14 9 8 9 7 6 1 2 4 5 4 5 4 4 5 5 8 7 4 3 4 4 4 3 5 6 6 6 6 6 6 7
3 6 3 6 6 4 4 4 3 2 6 3 2 3 2 4 6 12 8 7 8 9 8 8 7 6 7 7 9 10 12 13 12 11 13 9 4 5 5 6 7 7 8 8 8 8 8 9 9
5 4 9 6 5 4 3 3 6 4 3 3 4 5 8 7 8 13 10 6 7 8 8 7 8 7 7 8 7 6 7 6 7 8 7 5 6 7 8 10 13 12 11 11 9 10 10 8 4
3 5 5 3 3 5 5 4 2 8 3 6 8 6 4 7 8 11 7 6 5 4 5 7 7 8 8 7 5 4 5 4 5 9 7 6 6 6 6 5 5 5 10 4 5 5 4 5 4
4 3 4 4 2 3 5 5 3 1 1 5 9 7 6 9 8 9 9 7 7 7 5 6 7 9 8 5 5 5 5 4 5 5 8 5 4 5 6 5 6 6 6 7 5 3 4 5 5
3 3 4 4 6 4 5 3 2 3 3 6 8 8 9 8 7 6 7 7 7 9 6 6 7 7 6 8 5 5 5 5 4 5 6 5 5 5 4 4 4 5 6 5 5 5 5 5 5
2 4 3 2 3 3 4 1 2 4 5 6 8 8 8 10 9 6 5 7 8 8 7 5 8 7 7 6 6 4 4 4 5 5 5 6 4 4 4 5 5 5 5 5 4 4 4 5 5
4 3 4 2 3 2 5 2 8 6 7 8 7 7 7 7 8 9 7 8 8 5 7 8 8 6 8 6 5 4 3 4 4 4 6 6 5 5 5 4 5 4 4 6 5 5 4 4 5
5 5 2 2 4 0 3 8 2 9 11 10 8 6 7 6 8 7 8 8 6 7 8 6 6 7 6 5 4 4 4 4 3 4 4 6 6 5 4 4 5 5 4 4 5 5 4 5 4
6 3 4 8 7 3 4 7 1 6 8 9 9 8 7 6 4 6 8 8 8 7 8 7 6 6 5 4 3 3 4 3 3 3 3 5 5 4 3 3 4 5 4 4 3 3 2 4 5
6 4 4 5 2 2 3 13 2 6 8 11 9 8 8 8 9 8 8 8 7 7 6 7 5 6 4 3 3 2 2 3 3 3 4 6 4 6 4 4 4 3 3 4 4 3 3 4 5
4 3 3 3 2 5 8 10 11 9 7 9 9 9 9 9 6 6 7 8 7 5 7 7 6 4 2 2 2 1 1 2 2 3 5 6 5 6 6 5 6 5 5 5 4 3 3 3 2
3 2 4 5 1 5 3 11 10 6 9 14 15 12 12 6 6 7 7 7 9 8 7 5 5 5 3 2 2 2 2 2 3 2 4 4 5 6 5 5 5 6 4 6 6 4 3 3 2
2 4 3 4 4 2 5 9 5 1 2 6 8 10 8 11 10 8 9 10 7 7 8 8 6 5 4 4 2 0 1 1 2 2 3 3 5 4 4 5 4 6 3 4 4 4 3 4 3
2 1 2 1 4 3 3 7 7 4 8 3 6 8 9 10 6 7 8 7 9 8 6 7 7 6 5 5 3 3 2 2 2 2 3 5 4 5 5 5 5 5 4 5 4 4 3 3 4
3 3 3 2 4 3 3 2 10 5 6 5 5 7 8 10 12 11 10 10 8 5 7 7 6 5 4 5 3 3 2 2 2 2 5 5 5 6 6 6 6 6 4 5 6 6 5 3 3
3 4 7 5 3 2 4 5 7 3 4 7 2 7 9 10 10 8 7 3 5 5 5 6 6 5 4 3 2 0 2 4 3 3 4 4 4 5 6 7 6 6 6 6 6 6 6 6 5
6 6 4 4 3 7 1 3 8 5 3 4 7 9 8 6 7 8 9 7 7 7 7 5 5 5 2 2 3 2 1 2 4 5 4 6 4 4 6 6 6 5 6 7 7 6 6 7 5
2 6 6 4 2 5 1 5 4 2 4 5 5 4 5 6 6 7 7 7 7 7 6 4 3 3 2 3 4 4 2 1 3 4 5 4 4 5 7 7 6 7 7 6 6 5 5 7 7
2 2 3 5 2 1 4 6 4 5 7 9 9 5 3 5 6 8 6 5 3 3 2 3 2 1 4 4 4 4 4 5 6 7 5 4 6 7 7 6 7 8 8 12 12 9 11 10 10
2 5 3 3 2 4 5 5 4 6 5 8 8 6 4 5 6 5 4 2 0 1 2 4 4 4 3 3 2 3 6 6 6 6 7 7 8 6 7 10 11 11 12 12 11 10 10 11 9
2 1 5 4 4 4 2 6 5 2 3 1 4 7 6 6 4 2 1 1 4 4 5 4 5 5 4 4 4 6 6 6 6 6 7 7 7 10 12 12 12 12 13 13 12 12 13 13 12
2 4 5 6 3 1 5 8 2 3 5 5 4 5 5 6 6 5 3 3 5 5 5 4 3 3 4 5 5 6 6 6 6 7 8 8 12 12 13 13 13 13 14 15 15 14 14 15 14
Wind_Direction
317 310 131 49 53 65 341 1 343 56 55 341 33 81 101 60 52 162 338 157 128 144 176 162 153 156 129 119 108 110 102 93 79 73 72 54 56 63 56 61 53 53 54 54 51 48 57 69 85
325 351 40 90 82 76 295 297 94 144 147 164 67 52 54 52 83 116 94 149 156 161 172 165 162 165 145 130 123 117 95 108 88 90 90 77 65 81 63 55 54 52 42 43 42 34 32 85 81
241 58 77 87 116 150 158 252 130 69 44 322 91 59 89 25 60 168 170 154 165 178 173 177 166 170 150 121 130 120 101 101 95 96 95 87 82 72 69 64 62 50 44 34 31 25 23 38 69
56 15 29 78 106 9 202 163 140 124 353 34 58 68 57 75 276 231 145 159 168 172 149 166 148 138 143 137 138 125 116 111 104 102 99 90 89 86 69 57 44 38 32 26 16 15 14 7 8
36 55 56 73 51 58 327 109 158 129 124 14 354 143 77 32 351 129 153 163 159 104 138 161 162 163 157 153 149 145 140 125 113 104 99 97 80 63 40 33 35 26 11 7 359 352 356 349 345
45 92 74 140 185 153 290 161 97 73 79 45 76 88 193 17 20 66 77 96 108 139 141 170 178 157 161 163 156 154 148 131 106 108 103 94 87 65 27 358 343 338 333 335 335 330 327 343 337
112 81 156 139 189 201 191 170 92 112 68 38 129 96 276 35 335 117 89 51 75 132 145 170 177 172 178 161 134 136 101 134 89 73 18 351 350 307 297 298 308 307 312 310 309 303 311 317 326
104 92 109 201 196 236 154 93 111 80 152 40 51 159 119 9 58 87 80 69 57 53 42 349 100 58 43 16 77 61 64 44 19 11 351 284 321 316 307 295 297 295 299 305 298 296 289 292 305
115 65 161 200 158 228 171 123 32 77 101 65 24 113 74 77 86 76 58 42 63 52 39 65 68 64 75 67 60 50 55 54 43 31 28 39 28 356 342 321 303 302 299 305 305 302 297 295 295
86 107 204 188 183 198 152 133 149 103 100 54 70 58 61 78 78 93 87 63 57 41 34 43 67 64 68 71 58 51 51 46 42 34 28 27 24 35 38 32 29 9 336 331 332 329 317 314 318
157 160 185 197 164 144 138 106 83 127 224 192 173 140 93 99 90 95 80 77 72 68 56 36 55 55 61 61 50 46 50 38 40 34 29 26 27 27 28 27 18 12 10 14 359 345 337 322 309
95 121 160 164 132 113 157 115 87 181 245 165 151 144 119 114 113 121 112 108 95 73 57 48 53 65 55 61 54 51 55 43 39 30 26 36 24 23 28 22 17 15 4 4 355 344 327 350 339
116 139 90 93 93 86 100 66 182 178 134 101 121 116 127 120 112 95 114 110 112 92 81 70 77 76 70 69 62 59 61 60 52 40 33 36 32 27 20 11 14 18 3 357 349 342 345 345 336
107 86 89 105 116 123 117 133 41 204 157 116 130 141 143 138 145 121 129 126 108 117 109 109 85 88 83 75 75 78 70 57 47 38 27 34 41 27 22 11 9 6 357 342 344 340 342 336 332
107 78 2 190 182 165 137 274 235 170 158 153 158 160 149 153 151 156 160 138 140 134 135 112 107 95 86 88 86 74 64 64 50 29 22 27 32 29 25 10 353 344 339 341 350 339 335 337 331
59 50 22 295 149 21 118 267 262 167 157 179 178 181 161 166 170 165 158 140 149 129 124 110 108 102 93 86 81 71 53 53 39 24 17 20 23 35 13 359 345 331 341 344 343 326 326 322 320
7 225 217 313 194 122 160 267 276 166 172 186 189 194 184 165 170 181 173 160 164 146 137 126 122 118 116 107 89 69 66 58 18 14 10 3 9 5 15 350 322 338 342 337 333 316 314 306 304
202 217 245 239 206 166 199 260 225 188 187 202 190 198 203 190 194 188 174 170 159 157 154 144 151 146 124 89 63 42 37 15 12 8 1 351 348 351 359 337 327 332 331 324 335 307 298 254 281
145 197 236 256 228 159 229 264 263 204 204 208 202 198 207 206 205 190 186 172 162 172 169 173 162 180 134 81 83 36 328 324 335 352 349 346 348 351 347 340 340 346 347 321 314 288 301 298 295
167 214 256 283 281 174 254 261 258 211 215 207 199 196 202 183 188 200 199 186 184 177 193 186 193 176 161 142 181 170 202 247 251 291 320 348 356 343 335 341 328 331 334 332 329 332 310 275 281
219 193 217 230 338 326 342 293 297 324 242 216 206 195 184 186 189 205 208 208 188 186 195 196 200 192 181 169 126 317 302 315 336 344 322 331 324 326 331 321 313 313 314 302 294 288 280 284 293
262 188 112 52 47 262 31 284 285 323 302 257 200 181 178 182 203 211 211 218 208 210 194 199 197 192 194 175 173 176 185 240 232 239 261 296 311 317 314 306 305 298 294 297 284 291 275 225 268
213 68 64 73 83 8 309 102 272 357 340 324 225 210 199 195 198 206 209 215 218 183 209 203 192 202 202 202 196 181 220 225 283 293 309 314 313 314 305 297 293 288 283 272 271 285 281 237 233
102 68 44 52 84 349 256 146 290 347 313 308 262 201 204 204 210 222 228 218 226 214 206 189 192 226 229 229 175 96 286 300 310 303 306 303 290 288 286 287 284 275 273 269 265 266 255 259 247
69 57 327 347 8 227 17 101 248 301 321 297 297 228 210 205 205 219 218 208 214 203 207 204 206 252 293 15 14 32 358 300 293 294 284 297 289 287 289 291 282 275 269 267 271 267 264 259 244
147 147 160 245 227 284 104 237 263 281 324 321 323 226 160 201 220 222 214 214 207 205 207 212 237 269 359 41 36 25 6 295 278 268 276 272 273 270 272 272 270 272 272 269 263 256 254 259 255
184 183 176 112 17 55 263 298 14 357 360 12 19 43 201 223 228 229 238 226 226 279 255 240 233 72 50 42 30 360 330 310 287 288 288 279 276 283 280 285 279 272 268 276 276 273 277 268 272
131 160 72 7 235 271 299 291 240 349 353 4 15 14 322 318 332 348 2 357 276 191 78 75 70 73 55 32 348 304 302 306 294 296 287 280 281 272 276 280 279 282 282 274 266 270 270 269 271
48 9 58 119 137 181 307 279 228 273 181 162 325 354 338 325 329 333 201 119 102 98 87 72 56 46 14 334 308 306 300 296 284 274 273 273 276 290 291 285 282 282 286 279 270 265 266 266 268
184 186 140 124 229 117 145 273 305 2 354 0 47 19 16 36 34 12 13 83 72 60 51 53 30 358 311 292 286 284 276 277 290 288 279 281 286 289 287 285 280 279 285 278 269 268 270 266 268